Home   Weather   Norfolk   Past weeks

Flag for Canada Past Weather in Norfolk, Ontario, Canada — Yesterday and Last 2 Weeks

Now
31 °F

Chilly.


Feels Like: 31 °F
Forecast: 32 / 38 °F
Wind: 2 mph from East

Location: Delhi Cs Ont

Current Time: Jan 17, 2017 at 6:04:03 am

Latest Report: Jan 17, 2017 at 5:00 am


Visibility: N/A

Pressure: 30.05 "Hg

Humidity: 100%

Dew Point: 31 °F

Location of NorfolkLocation

Past Weather in Norfolk — Graph

°F

Norfolk Temperature Yesterday

Maximum temperature yesterday: 35 °F (at 3:00 pm)
Minimum temperature yesterday: 15 °F (at 6:00 am)
Average temperature yesterday: 26 °F

High & Low Weather Summary for the Past Weeks

 TemperatureHumidityPressure
High54 °F (Jan 12, 2:00 am)100% (Jan 3, 10:00 pm)30.77 "Hg (Jan 3, 10:00 pm)
Low4 °F (Jan 7, 4:00 am)53% (Jan 6, 12:00 pm)29.49 "Hg (Jan 4, 1:00 am)
Average25 °F80%30.16 "Hg
* Reported Jan 2 4:00 am — Jan 17 4:00 am, Norfolk, Weather by CustomWeather, © 2017

Note: Actual official high and low records may vary slightly from our data, if they occured in-between our weather recording intervals... More about our weather records

Advertising

Norfolk Weather History for the Previous 24 Hours

Scroll right to see more
 ConditionsComfort  
Time TempWeatherWind HumidityBarometerVisibility
4:00 am
Tue, Jan 17
32 °FChilly.2 mph100%30.10 "HgN/A
3:00 am32 °FChilly.1 mph99%30.14 "HgN/A
2:00 am32 °FChilly.1 mph100%30.14 "HgN/A
1:00 am32 °FChilly.1 mph95%30.16 "HgN/A
12:00 am32 °FChilly.1 mph95%30.18 "HgN/A
11:00 pm
Mon, Jan 16
32 °FChilly.1 mph93%30.20 "HgN/A
10:00 pm32 °FChilly.No wind92%30.24 "HgN/A
9:00 pm31 °FChilly.1 mph93%30.26 "HgN/A
8:00 pm32 °FChilly.1 mph87%30.27 "HgN/A
7:00 pm32 °FChilly.1 mph82%30.27 "HgN/A
6:00 pm32 °FChilly.1 mph81%30.29 "HgN/A
5:00 pm33 °FChilly.2 mph76%30.29 "HgN/A
4:00 pm35 °FChilly.2 mph65%30.29 "HgN/A
3:00 pm35 °FChilly.2 mph61%30.29 "HgN/A
2:00 pm35 °FChilly.3 mph65%30.30 "HgN/A
1:00 pm35 °FChilly.3 mph68%30.31 "HgN/A
12:00 pm35 °FChilly.3 mph62%30.34 "HgN/A
11:00 am32 °FChilly.2 mph88%30.37 "HgN/A
10:00 am27 °FChilly.2 mph93%30.39 "HgN/A
9:00 am19 °FCold.1 mph94%30.39 "HgN/A
8:00 am16 °FCold.2 mph94%30.38 "HgN/A
7:00 am16 °FCold.No wind95%30.38 "HgN/A
6:00 am15 °FCold.No wind94%30.37 "HgN/A
Weather by CustomWeather, © 2017

See weather overviewHow to use our weather pages